Regional Weather Roundup
Issued by NWS

Home | Current Version | Previous Version | Text Only | Print | Product List | Glossary On
Versions: 1 2 3 4 5 6 7 8 9 10 11 12 13 14 15 16 17 18 19 20 21 22 23 24 25 26 27 28 29 30 31 32 33 34 35 36 37 38 39 40 41 42 43 44 45 46 47 48 49 50
000
ASUS45 KPSR 281310
RWRAZ

ARIZONA REGIONAL HOURLY WEATHER ROUNDUP
NATIONAL WEATHER SERVICE PHOENIX AZ
600 AM MST FRI NOV 28 2014

NOTE: FAIR INDICATES FEW OR NO CLOUDS BELOW 12,000 FEET WITH NO
SIGNIFICANT WEATHER AND/OR OBSTRUCTIONS TO VISIBILITY.

AZZ001>003-036-281400-
NORTHWEST ARIZONA

CITY           SKY/WX    TMP DP  RH WIND       PRES   REMARKS
BULLHEAD CITY  CLEAR     46  30  53 CALM      30.08S
KINGMAN        PTCLDY    39  12  33 CALM      30.12F
$$

AZZ004>008-015-016-018-281400-
NORTH CENTRAL ARIZONA

CITY           SKY/WX    TMP DP  RH WIND       PRES   REMARKS
GRAND CANYON   MOCLDY    15   3  59 CALM      30.28S
PRESCOTT       PTCLDY    34  12  40 S6        30.22S WCI  29
FLAGSTAFF      PTCLDY    25  12  58 CALM      30.29F
PAYSON         CLEAR     48  18  29 E5        30.25S
PAGE           MOCLDY    39  17  41 NW5       30.22F
$$

AZZ009>014-017-281400-
NORTHEAST ARIZONA

CITY           SKY/WX    TMP DP  RH WIND       PRES   REMARKS
WINSLOW        CLOUDY    22  11  62 S5        30.25S WCI  16
SAINT JOHNS    CLOUDY    26  13  57 S3        30.27R
SHOW LOW       PTCLDY    43  14  31 S15       30.29S
$$

AZZ023-281400-
GREATER PHOENIX AREA

CITY           SKY/WX    TMP DP  RH WIND       PRES   REMARKS
PHOENIX        CLEAR     56  26  31 E5        30.03S
GLENDALE       PTCLDY    46  30  53 N3        30.05
LUKE AFB       CLEAR     44  27  50 N5        30.04S
DEER VALLEY    CLEAR     55  19  24 N6        30.04S
SCOTTSDALE     CLEAR     52  29  41 CALM      30.05S
MESA-GATEWAY   CLEAR     43  23  45 SE3       30.07S
CHANDLER       CLEAR     46  28  49 E3        30.05
$$

AZZ027-028-281400-
SOUTHWEST MARICOPA COUNTY AND PINAL COUNTY

CITY           SKY/WX    TMP DP  RH WIND       PRES   REMARKS
CASA GRANDE    CLEAR     46  19  34 CALM      30.06R
$$

AZZ503-504-507>509-281400-
SOUTHEAST ARIZONA

CITY           SKY/WX    TMP DP  RH WIND       PRES   REMARKS
TUCSON         CLEAR     50  21  32 SE5       30.12S
DAVIS-MONTHAN  CLEAR     53  21  28 S8        30.11S
RYAN FIELD       N/A     59  34  38 E8        30.11
NOGALES        CLEAR     41  20  43 CALM      30.16S
SIERRA VISTA   PTCLDY    45  18  34 CALM      30.20S
DOUGLAS        PTCLDY    29  18  63 N3        30.21R
SAFFORD        PTCLDY    49  22  34 SE12      30.19S
$$

AZZ020-021-025-026-031-281400-
SOUTHWEST ARIZONA

CITY           SKY/WX    TMP DP  RH WIND       PRES   REMARKS
YUMA           CLEAR     59  24  26 NE7       29.98S
$$

CAZ031-033-041-043-047-048-061-281400-
SOUTHERN CALIFORNIA

CITY           SKY/WX    TMP DP  RH WIND       PRES   REMARKS
DOWNTOWN L.A.  CLEAR     54  34  46 CALM      29.97F
L.A. AIRPORT   CLEAR     57  37  47 CALM      29.98S
SAN DIEGO      CLEAR     56  32  40 N3        29.99S
BURBANK        CLEAR     51  27  39 CALM      29.98F
ONTARIO        PTCLDY    55  28  35 NE3       30.00F
RIVERSIDE      CLEAR     50  29  44 E3        30.01S
PALM SPRINGS   CLEAR     56  22  26 NW9       30.01S
EL CENTRO NAS  CLEAR     50  23  34 W8        29.98S
IMPERIAL       CLEAR     47  28  47 SW5       29.98S
BLYTHE         CLEAR     51  21  30 CALM      30.02F
NEEDLES        CLEAR     47  20  34 W5        30.07R
$$

NVZ020-UTZ003-281400-
SOUTHERN NEVADA-UTAH

CITY           SKY/WX    TMP DP  RH WIND       PRES   REMARKS
LAS VEGAS      PTCLDY    43  20  39 S7        30.07S
SALT LAKE CITY CLOUDY    44  24  45 SE8       30.02F
$$

NMZ009-TXZ055-281400-
NEW MEXICO-WEST TEXAS

CITY           SKY/WX    TMP DP  RH WIND       PRES   REMARKS
ALBUQUERQUE    MOCLDY    32  19  58 E3        30.28S
EL PASO        MOCLDY    38  22  52 N8        30.25S WCI  32
$$


........................KEY........................
SKY/WX - SKY CONDITION/WEATHER
TMP    - TEMPERATURE IN FAHRENHEIT
DP     - DEW POINT IN FAHRENHEIT
RH     - RELATIVE HUMIDITY IN PERCENT
WIND   - DIRECTION AND SPEED IN MILES PER HOUR (MPH)
VRB    - VARIABLE WIND DIRECTION
PRES   - MEAN SEA LEVEL PRESSURE IN INCHES OF MERCURY
         F - FALLING PRESSURE   R - RISING PRESSURE
         S - STEADY PRESSURE
VSB    - VISIBILITY IN MILES
HX     - HEAT INDEX IN FAHRENHEIT
WCI    - WIND CHILL INDEX IN FAHRENHEIT
TC     - TEMPERATURE IN CELSIUS WHICH IS ALSO KNOWN AS
         TEMPERATURE IN CENTIGRADE
AFB    - AIR FORCE BASE
         LUKE AFB IS LUKE AIR FORCE BASE
         DAVIS-MONTHAN IS DAVIS-MONTHAN AIR FORCE BASE
NAS    - NAVAL AIR STATION
         EL CENTRO NAS IS EL CENTRO NAVAL AIR STATION
N/A    - NOT AVAILABLE



USA.gov is the U.S. government's official web portal to all federal, state and local government web resources and services.